Location: Luxembourg
(49.6117°N, 6.1300°E)
Time: 15:33:38
(UTC+01:00)

A-11 Canister half - All Passes

Search period start: 09 November 2024 00:00
Search period end: 19 November 2024 00:00
Orbit: 1514 x 1685 km, 47.2° (Epoch: 08 November)

Date Brightness Start Highest point End Pass type
(mag) Time Alt. Az. Time Alt. Az. Time Alt. Az.
09 Nov - 02:35:14 10° S 02:42:23 23° SE 02:49:37 10° E visible
09 Nov - 04:36:03 10° SW 04:45:46 55° SSE 04:55:32 10° ENE visible
09 Nov - 06:40:11 10° WSW 06:50:21 78° S 07:00:29 10° E visible
09 Nov - 08:45:08 10° W 08:55:13 68° SSW 09:05:05 10° ESE daylight
09 Nov - 10:50:24 10° WNW 10:59:09 35° SW 11:07:41 10° SSE daylight
10 Nov - 02:12:39 10° S 02:19:30 21° SE 02:26:25 10° E visible
10 Nov - 04:13:08 10° SW 04:22:46 53° SSE 04:32:30 10° ENE visible
10 Nov - 06:17:09 10° WSW 06:27:19 78° S 06:37:27 10° E visible
10 Nov - 08:22:05 10° W 08:32:12 69° SSW 08:42:07 10° ESE daylight
10 Nov - 10:27:18 10° WNW 10:36:12 37° SW 10:44:55 10° SSE daylight
11 Nov - 01:50:06 10° S 01:56:36 20° SE 02:03:09 10° E visible
11 Nov - 03:50:14 10° SW 03:59:47 51° SSE 04:09:27 10° ENE visible
11 Nov - 05:54:08 10° WSW 06:04:17 77° S 06:14:26 10° E visible
11 Nov - 07:59:03 10° W 08:09:11 71° SSW 08:19:08 10° ESE daylight
11 Nov - 10:04:13 10° WNW 10:13:15 39° SW 10:22:07 10° SSE daylight
11 Nov - 12:13:22 10° WSW 12:15:51 11° WSW 12:18:20 10° SW daylight
12 Nov - 01:27:36 10° SSE 01:33:43 18° SE 01:39:53 10° E visible
12 Nov - 03:27:20 10° SW 03:36:48 49° SSE 03:46:25 10° ENE visible
12 Nov - 05:31:08 10° WSW 05:41:15 77° S 05:51:24 10° E visible
12 Nov - 07:36:01 10° W 07:46:09 72° SSW 07:56:10 10° ESE daylight
12 Nov - 09:41:08 10° WNW 09:50:18 40° SW 09:59:18 10° SSE daylight
12 Nov - 11:49:26 10° W 11:53:00 12° WSW 11:56:34 10° SW daylight
13 Nov - 01:05:10 10° SSE 01:10:50 17° SE 01:16:34 10° E visible
13 Nov - 03:04:28 10° SW 03:13:50 47° SE 03:23:20 10° ENE visible
13 Nov - 05:08:07 10° WSW 05:18:13 76° S 05:28:22 10° E visible
13 Nov - 07:12:58 10° W 07:23:08 73° SSW 07:33:10 10° ESE daylight
13 Nov - 09:18:03 10° WNW 09:27:21 42° SW 09:36:28 10° SSE daylight
13 Nov - 11:25:46 10° W 11:30:08 14° WSW 11:34:28 10° SSW daylight
14 Nov - 00:42:48 10° SSE 00:47:57 16° SE 00:53:10 10° E visible
14 Nov - 02:41:37 10° SSW 02:50:52 45° SE 03:00:17 10° ENE visible
14 Nov - 04:45:06 10° WSW 04:55:11 75° SSE 05:05:20 10° E visible
14 Nov - 06:49:56 10° W 07:00:06 74° SSW 07:10:10 10° ESE visible
14 Nov - 08:55:00 10° WNW 09:04:23 44° SW 09:13:37 10° SSE daylight
14 Nov - 11:02:16 10° W 11:07:16 15° SW 11:12:14 10° SSW daylight
15 Nov - 00:20:30 10° SSE 00:25:05 14° ESE 00:29:42 10° E visible
15 Nov - 02:18:45 10° SSW 02:27:54 43° SE 02:37:14 10° ENE visible
15 Nov - 04:22:06 10° WSW 04:32:09 74° SSE 04:42:18 10° E visible
15 Nov - 06:26:54 10° W 06:37:04 75° S 06:47:10 10° ESE visible
15 Nov - 08:31:57 10° WNW 08:41:25 46° SW 08:50:46 10° SE daylight
15 Nov - 10:38:51 10° W 10:44:24 16° SW 10:49:53 10° SSW daylight
15 Nov - 23:58:21 10° SE 00:02:13 13° ESE 00:06:06 10° E night (unlit)
16 Nov - 01:55:56 10° SSW 02:04:57 41° SE 02:14:09 10° ENE visible
16 Nov - 03:59:07 10° WSW 04:09:07 73° SSE 04:19:16 10° E visible
16 Nov - 06:03:53 10° W 06:14:02 76° S 06:24:09 10° ESE visible
16 Nov - 08:08:53 10° WNW 08:18:27 48° SSW 08:27:54 10° SE daylight
16 Nov - 10:15:30 10° W 10:21:30 18° SW 10:27:28 10° SSW daylight
16 Nov - 23:36:26 10° SE 23:39:21 12° ESE 23:42:17 10° ESE night (unlit)
17 Nov - 01:33:06 10° SSW 01:41:59 39° SE 01:51:05 10° ENE visible
17 Nov - 03:36:08 10° WSW 03:46:06 71° SSE 03:56:14 10° E visible
17 Nov - 05:40:51 10° W 05:51:00 77° S 06:01:09 10° ESE visible
17 Nov - 07:45:50 10° WNW 07:55:28 50° SSW 08:05:00 10° SE daylight
17 Nov - 09:52:12 10° W 09:58:37 19° SW 10:04:59 10° SSW daylight
17 Nov - 23:15:09 10° SE 23:16:30 10° ESE 23:17:52 10° ESE night (unlit)
18 Nov - 01:10:18 10° SSW 01:19:03 37° SE 01:27:59 10° ENE visible
18 Nov - 03:13:09 10° WSW 03:23:04 70° SSE 03:33:11 10° E visible
18 Nov - 05:17:49 10° W 05:27:57 78° S 05:38:07 10° ESE visible
18 Nov - 07:22:47 10° WNW 07:32:29 52° SSW 07:42:06 10° SE daylight
18 Nov - 09:28:57 10° W 09:35:44 21° SW 09:42:28 10° S daylight
